Indianapolis, IN

12:51 PM EST on November 13, 2019 (GMT -0500)
Indianapolis International

Weather History for KIND - September, 2019

Change the Weather History Date:

Wednesday, September 4, 2019

  Actual Average Record
Temperature  
Mean Temperature 71 °F 71 °F  
Max Temperature 79 °F 82 °F 98 °F (1954)
Min Temperature 63 °F 61 °F 46 °F (1952)
Degree Days  
Heating Degree Days 0 0  
Month to date heating degree days 0 0  
Since 1 July heating degree days 0 4  
Cooling Degree Days 6 7  
Month to date cooling degree days 30 29  
Year to date cooling degree days 1069 950  
Growing Degree Days 22 (Base 50)    
Moisture  
Dew Point 62 °F    
Average Humidity 74    
Maximum Humidity 100    
Minimum Humidity 48    
Precipitation  
Precipitation 0.00 in 0.09 in 6.80 in (1895)
Month to date precipitation T 0.39  
Year to date precipitation 36.55 29.72  
Snow  
Snow 0.00 in 0.00 in 0.00 in ()
Month to date snowfall 0.0 0.0  
Since 1 July snowfall 0.0 0.0  
Since 1 September snowfall 0.0 0.0  
Snow Depth 0.00 in    
Sea Level Pressure  
Sea Level Pressure 30.03 in    
Wind  
Wind Speed 9 mph (NW)    
Max Wind Speed 17 mph    
Max Gust Speed 22 mph    
Visibility 10 miles    
Events      
T = Trace of Precipitation, MM = Missing Value Source: NWS Daily Summary

Daily Weather History Graph

Daily Weather History Graph

Search for Another Location

Airport or City:

Astronomy

Sep. 04, 2019 Rise Set
Actual Time 7:15 AM EDT 8:11 PM EDT
Civil Twilight 6:48 AM EDT 8:39 PM EDT
Nautical Twilight 6:15 AM EDT 9:11 PM EDT
Astronomical Twilight 5:41 AM EDT 9:45 PM EDT
Moon 1:15 PM EDT (9/4) 11:47 PM EDT (9/4)
Length of Visible Light 13h 51m
Length of Day
12h 56m
Waxing Crescent, 34% of the Moon is Illuminated
Sep 4
Waxing Crescent
Sep 5
First Quarter
Sep 14
Full
Sep 21
Last Quarter
Sep 28
New

Hourly Weather History & Observations

Time (EDT) Temp. Dew Point Humidity Pressure Visibility Wind Dir Wind Speed Gust Speed Precip Events Conditions
12:54 AM 73.9 °F 70.0 °F 87% 29.92 in 10.0 mi WSW 11.5 mph - N/A   Mostly Cloudy
1:54 AM 73.9 °F 70.0 °F 87% 29.93 in 10.0 mi WSW 9.2 mph - N/A   Mostly Cloudy
2:54 AM 73.9 °F 70.0 °F 87% 29.94 in 10.0 mi WSW 9.2 mph - N/A   Scattered Clouds
3:54 AM 72.0 °F 71.1 °F 97% 29.94 in 10.0 mi West 8.1 mph - N/A   Scattered Clouds
4:54 AM 72.0 °F 70.0 °F 93% 29.95 in 10.0 mi WNW 6.9 mph - N/A   Partly Cloudy
5:54 AM 70.0 °F 66.0 °F 87% 29.96 in 10.0 mi NW 6.9 mph - N/A   Partly Cloudy
6:54 AM 68.0 °F 64.0 °F 87% 29.99 in 10.0 mi NW 6.9 mph - N/A   Partly Cloudy
7:54 AM 66.9 °F 64.0 °F 90% 30.01 in 10.0 mi WNW 4.6 mph - N/A   Partly Cloudy
8:54 AM 71.1 °F 62.1 °F 73% 30.03 in 10.0 mi NW 6.9 mph - N/A   Partly Cloudy
9:54 AM 73.0 °F 61.0 °F 66% 30.05 in 10.0 mi NW 9.2 mph - N/A   Clear
10:54 AM 73.9 °F 60.1 °F 62% 30.05 in 10.0 mi WNW 8.1 mph - N/A   Clear
11:54 AM 75.9 °F 59.0 °F 56% 30.06 in 10.0 mi NNW 6.9 mph - N/A   Partly Cloudy
12:54 PM 77.0 °F 57.0 °F 50% 30.06 in 10.0 mi WNW 12.7 mph - N/A   Partly Cloudy
1:54 PM 77.0 °F 57.0 °F 50% 30.07 in 10.0 mi NW 10.4 mph 18.4 mph N/A   Partly Cloudy
2:54 PM 79.0 °F 59.0 °F 50% 30.06 in 10.0 mi WNW 11.5 mph 17.3 mph N/A   Partly Cloudy
3:54 PM 79.0 °F 57.9 °F 48% 30.05 in 10.0 mi NW 9.2 mph - N/A   Partly Cloudy
4:54 PM 79.0 °F 57.9 °F 48% 30.05 in 10.0 mi NNW 6.9 mph - N/A   Partly Cloudy
5:54 PM 75.9 °F 57.9 °F 54% 30.06 in 10.0 mi NNW 11.5 mph - N/A   Scattered Clouds
6:54 PM 73.9 °F 57.9 °F 57% 30.07 in 10.0 mi NNW 10.4 mph - N/A   Scattered Clouds
7:54 PM 73.0 °F 57.9 °F 59% 30.08 in 10.0 mi North 9.2 mph - N/A   Partly Cloudy
8:54 PM 69.1 °F 59.0 °F 70% 30.08 in 10.0 mi North 6.9 mph - N/A   Partly Cloudy
9:54 PM 69.1 °F 59.0 °F 70% 30.09 in 10.0 mi North 11.5 mph - N/A   Partly Cloudy
10:54 PM 66.9 °F 57.9 °F 73% 30.10 in 10.0 mi North 15.0 mph - N/A   Clear
11:54 PM 64.0 °F 55.9 °F 75% 30.10 in 10.0 mi NNE 10.4 mph - N/A   Clear